风云一号B星 (FENGYUN 1B)

导读

FENGYUN 1B(风云一号B星)是中国研制的第一代准极地太阳同步轨道试验型气象卫星,于1990年9月3日由长征四号火箭发射升空。卫星重750千克,运行于900公里高度轨道,携带多光谱扫描辐射仪,可获取云图与海洋、植被等环境数据。其姿态控制相较FY-1A明显改进,获取的图像质量提升,红外云图达到国际先进水平,为后续我国气象卫星发展积累了关键经验。

Basic Information
目录编号:
20788
目录名称:
FENGYUN 1B
国际标识:
1990-081A
轨道中心:
EARTH
卫星名称:
风云一号B星
卫星全名:
风云一号B星 (FENGYUN 1B)
卫星状态:
在轨 (已飞行13157 天)
发射日期:
1990-09-03 UTC
国别 :
中国 (CN)
星等 :
--
This satellite is enrolled in the Space Conjunction Data Service (SCDS) and the current flight risk assessment level is: No High Risk
Orbit Information
数据来源 国际轨道数据 AOE轨道数据
星历时间 2026-09-11T04:07:54+0800
10小时前
查看轨道信息
2026-09-10T16:00:00+0800
22小时前
查看轨道信息
半长轴 7260.839km 7260.842km
偏心率 0.0017147 0.0016979
轨道倾角 98.983° 98.982°
近地点辐角 94.331° 93.267°
升交点赤经 232.888° 232.392°
平近点角 265.982° 234.947°
近地点 870.251km 870.376km
远地点 895.153km 895.034km
周期 102.622分钟 102.622分钟
每日圈数 14.032097 14.032089
Detailed Information
平衡模式:
自旋稳定
覆盖范围:
亚洲
运营商:
夏威夷科学技术博物馆
运营商所在国:
美国
制造商(研发单位):
上海航天技术研究院
制造商所在国:
中国
使用方式:
暂无
Satellite Introduction
风云气象卫星系列(FENGYUN Meteorological Satellite)是中国于1977年开始研制的气象卫星系列,目前发射了风云一号、风云二号、风云三号、风云四号等卫星系列。其中,风云二号系列、风云四号系列为风云静止卫星,风云一号系列、风云三号系列为风云极轨卫星。该卫星已退役。
2D Orbit Map
3D Orbit Map
Orbit Altitude Analysis Chart
Orbit Inclination Analysis Chart
Orbit Comprehensive Analysis Chart
View Comprehensive Chart
Conjunction Data List
Event ID Objects TCA Miss Dist (km) Collision Risk Probability Collision Risk Index (CRI) Action
CDM_260912-063401-780502-078826
2026-09-12T
06:34:19+0000
1.563 km
极远距离
5.798602E-6 低风险 0.5
CDM_260912-081802-078804-911327
2026-09-12T
08:18:15+0000
1.941 km
极远距离
3.093583E-6 低风险 0.45
Miss Distance Evolution Trend with All Objects
Collision Probability Evolution Trend with All Objects